,,,PA_Meas_PMT16A,,PR_Meas_QMR101_102,,RH_Meas_QMH101,,SR_Meas_QMS101,,TA_Meas_QMH101,,GenWind,,GenWind,
date,time,status,PA,status,PR,status,RH,status,SR,status,TA,status,DirAvg,status,SpdAvg,
2011-08-18, 00:00:04,VALID,1000.54,VALID,0,VALID,89.1216,VALID,0,VALID,22.043,VALID,61,VALID,0.758984,
2011-08-18, 00:01:04,VALID,1000.53,VALID,0,VALID,88.9919,VALID,0,VALID,22.0218,VALID,60,VALID,0.726953,
2011-08-18, 00:02:04,VALID,1000.54,VALID,0,VALID,88.9309,VALID,0,VALID,22.043,VALID,60,VALID,0.650781,
2011-08-18, 00:03:04,VALID,1000.52,VALID,0,VALID,88.9614,VALID,0,VALID,22.043,VALID,60,VALID,0.59375,
2011-08-18, 00:04:04,VALID,1000.51,VALID,0,VALID,89.0682,VALID,0,VALID,22.043,VALID,60,VALID,0.615625,
2011-08-18, 00:05:04,VALID,1000.49,VALID,0,VALID,89.2437,VALID,0.112286,VALID,22.043,VALID,60,VALID,0.505078,
2011-08-18, 00:06:04,VALID,1000.47,VALID,0,VALID,89.3276,VALID,0,VALID,22.043,VALID,60,VALID,0.473047,
2011-08-18, 00:07:04,VALID,1000.47,VALID,0,VALID,89.4039,VALID,0,VALID,22.0413,VALID,60,VALID,0.473828,
2011-08-18, 00:08:04,VALID,1000.47,VALID,0,VALID,89.4726,VALID,0,VALID,22.043,VALID,60,VALID,0.470313,
2011-08-18, 00:09:04,VALID,1000.49,VALID,0,VALID,89.5489,VALID,0,VALID,22.0608,VALID,60,VALID,0.333203,
2011-08-18, 00:10:04,VALID,1000.49,VALID,0,VALID,89.6023,VALID,0,VALID,22.082,VALID,60,VALID,0.267188,
2011-08-18, 00:11:04,VALID,1000.48,VALID,0,VALID,89.6099,VALID,0.112286,VALID,22.082,VALID,60,VALID,0.414844,
2011-08-18, 00:12:04,VALID,1000.46,VALID,0,VALID,89.6709,VALID,0,VALID,22.0608,VALID,60,VALID,0.423047,
2011-08-18, 00:13:04,VALID,1000.44,VALID,0,VALID,89.7091,VALID,0,VALID,22.0625,VALID,60,VALID,0.517578,
2011-08-18, 00:14:04,VALID,1000.43,VALID,0,VALID,89.7777,VALID,0,VALID,22.1015,VALID,61,VALID,0.527344,
2011-08-18, 00:15:04,VALID,1000.41,VALID,0,VALID,89.7243,VALID,0,VALID,22.121,VALID,61,VALID,0.537891,
2011-08-18, 00:16:04,VALID,1000.4,VALID,0,VALID,89.587,VALID,0.112286,VALID,22.1194,VALID,61,VALID,0.510156,
2011-08-18, 00:17:04,VALID,1000.42,VALID,0,VALID,89.4649,VALID,0,VALID,22.121,VALID,61,VALID,0.4625,
2011-08-18, 00:18:04,VALID,1000.4,VALID,0,VALID,89.3581,VALID,0,VALID,22.1015,VALID,61,VALID,0.58125,
2011-08-18, 00:19:04,VALID,1000.38,VALID,0,VALID,89.2132,VALID,0,VALID,22.0625,VALID,61,VALID,0.485938,
2011-08-18, 00:20:04,VALID,1000.42,VALID,0,VALID,89.1521,VALID,0,VALID,22.0235,VALID,61,VALID,0.319141,
2011-08-18, 00:21:04,VALID,1000.41,VALID,0,VALID,89.0834,VALID,0,VALID,21.9845,VALID,61,VALID,0.256641,
2011-08-18, 00:22:04,VALID,1000.41,VALID,0,VALID,89.1674,VALID,0,VALID,21.926,VALID,61,VALID,0.553125,
2011-08-18, 00:23:04,VALID,1000.4,VALID,0,VALID,89.2589,VALID,0,VALID,21.8675,VALID,61,VALID,0.578906,
2011-08-18, 00:24:04,VALID,1000.41,VALID,0,VALID,89.3581,VALID,0,VALID,21.809,VALID,61,VALID,0.739453,
2011-08-18, 00:25:04,VALID,1000.4,VALID,0,VALID,89.5489,VALID,0,VALID,21.77,VALID,61,VALID,0.784766,
2011-08-18, 00:26:04,VALID,1000.42,VALID,0,VALID,89.6328,VALID,0,VALID,21.7098,VALID,61,VALID,0.55,
2011-08-18, 00:27:04,VALID,1000.39,VALID,0,VALID,89.793,VALID,0,VALID,21.6725,VALID,61,VALID,0.776953,
2011-08-18, 00:28:04,VALID,1000.34,VALID,0,VALID,90.1211,VALID,0,VALID,21.6725,VALID,61,VALID,0.719141,
2011-08-18, 00:29:04,VALID,1000.34,VALID,0,VALID,90.2813,VALID,0,VALID,21.653,VALID,61,VALID,0.249219,
2011-08-18, 00:30:04,VALID,1000.33,VALID,0,VALID,90.3042,VALID,0,VALID,21.6335,VALID,61,VALID,0.38125,
2011-08-18, 00:31:04,VALID,1000.29,VALID,0,VALID,90.5026,VALID,0,VALID,21.6351,VALID,61,VALID,0.197656,
2011-08-18, 00:32:04,VALID,1000.27,VALID,0,VALID,90.6246,VALID,0,VALID,21.6351,VALID,61,VALID,0,
2011-08-18, 00:33:04,VALID,1000.29,VALID,0,VALID,90.7467,VALID,0,VALID,21.6335,VALID,61,VALID,0.376563,
2011-08-18, 00:34:04,VALID,1000.28,VALID,0,VALID,90.8993,VALID,0,VALID,21.6725,VALID,61,VALID,0.582031,
2011-08-18, 00:35:04,VALID,1000.26,VALID,0,VALID,90.968,VALID,0,VALID,21.7326,VALID,104,VALID,0.6,
2011-08-18, 00:36:04,VALID,1000.23,VALID,0,VALID,90.8459,VALID,0,VALID,21.7716,VALID,104,VALID,0.454688,
2011-08-18, 00:37:04,VALID,1000.21,VALID,0,VALID,90.6933,VALID,0,VALID,21.7716,VALID,107,VALID,0.419922,
2011-08-18, 00:38:04,VALID,1000.2,VALID,0,VALID,90.6933,VALID,0,VALID,21.809,VALID,117,VALID,0.678125,
2011-08-18, 00:39:04,VALID,1000.2,VALID,0,VALID,90.7314,VALID,0,VALID,21.9082,VALID,148,VALID,1.02227,
2011-08-18, 00:40:04,VALID,1000.15,VALID,0,VALID,90.678,VALID,0,VALID,22.0057,VALID,134,VALID,1.375,
2011-08-18, 00:41:04,VALID,1000.14,VALID,0,VALID,90.5026,VALID,0,VALID,22.121,VALID,136,VALID,1.03008,
2011-08-18, 00:42:04,VALID,1000.14,VALID,0,VALID,90.1363,VALID,0,VALID,22.2592,VALID,136,VALID,1.03633,
2011-08-18, 00:43:04,VALID,1000.13,VALID,0,VALID,89.7243,VALID,0,VALID,22.3356,VALID,136,VALID,0.814453,
2011-08-18, 00:44:04,VALID,1000.12,VALID,0,VALID,89.2132,VALID,0,VALID,22.4348,VALID,141,VALID,1.08086,
2011-08-18, 00:45:04,VALID,1000.13,VALID,0,VALID,88.702,VALID,0,VALID,22.4933,VALID,141,VALID,1.31992,
2011-08-18, 00:46:04,VALID,1000.16,VALID,0,VALID,88.2366,VALID,0,VALID,22.5714,VALID,141,VALID,0.832812,
2011-08-18, 00:47:04,VALID,1000.11,VALID,0,VALID,87.9085,VALID,0,VALID,22.5892,VALID,141,VALID,0.992188,
2011-08-18, 00:48:04,VALID,1000.13,VALID,0,VALID,87.5575,VALID,0,VALID,22.6672,VALID,141,VALID,0.590625,
2011-08-18, 00:49:04,VALID,1000.09,VALID,0,VALID,87.2752,VALID,0,VALID,22.7079,VALID,141,VALID,0.75625,
2011-08-18, 00:50:04,VALID,1000.07,VALID,0,VALID,87.0616,VALID,0,VALID,22.7452,VALID,141,VALID,0.676172,
2011-08-18, 00:51:04,VALID,1000.07,VALID,0,VALID,86.8022,VALID,0,VALID,22.7647,VALID,141,VALID,0.450391,
2011-08-18, 00:52:04,VALID,1000.06,VALID,0,VALID,86.5809,VALID,0,VALID,22.7842,VALID,141,VALID,0.292578,
2011-08-18, 00:53:04,VALID,1000.02,VALID,0,VALID,86.0926,VALID,0,VALID,22.8037,VALID,141,VALID,0.803516,
2011-08-18, 00:54:04,VALID,1000,VALID,0,VALID,85.7264,VALID,0,VALID,22.8623,VALID,133,VALID,0.858203,
2011-08-18, 00:55:04,VALID,999.982,VALID,0,VALID,85.3983,VALID,0,VALID,22.903,VALID,133,VALID,0.86875,
2011-08-18, 00:56:04,VALID,999.966,VALID,0,VALID,84.994,VALID,0,VALID,22.942,VALID,128,VALID,1.10469,
2011-08-18, 00:57:04,VALID,999.923,VALID,0,VALID,84.292,VALID,0,VALID,22.9811,VALID,128,VALID,1.54727,
2011-08-18, 00:58:04,VALID,999.921,VALID,0,VALID,83.7122,VALID,0,VALID,23.0378,VALID,128,VALID,0.870703,
2011-08-18, 00:59:04,VALID,999.915,VALID,0,VALID,83.056,VALID,0,VALID,23.0573,VALID,141,VALID,1.36016,
2011-08-18, 01:00:04,VALID,999.912,VALID,0,VALID,82.5601,VALID,0,VALID,23.1566,VALID,128,VALID,1.18516,
2011-08-18, 01:01:04,VALID,999.857,VALID,0,VALID,82.1557,VALID,0,VALID,23.1957,VALID,128,VALID,1.11055,
2011-08-18, 01:02:04,VALID,999.851,VALID,0,VALID,82.3312,VALID,0,VALID,23.1957,VALID,128,VALID,0.462109,
2011-08-18, 01:03:04,VALID,999.833,VALID,0,VALID,82.377,VALID,0,VALID,23.2152,VALID,128,VALID,0.603906,
2011-08-18, 01:04:04,VALID,999.845,VALID,0,VALID,82.1786,VALID,0,VALID,23.1744,VALID,146,VALID,0.784766,
2011-08-18, 01:05:04,VALID,999.809,VALID,0,VALID,82.11,VALID,0,VALID,23.1939,VALID,146,VALID,0.477734,
2011-08-18, 01:06:04,VALID,999.819,VALID,0,VALID,81.82,VALID,0,VALID,23.1957,VALID,146,VALID,0.450391,
2011-08-18, 01:07:04,VALID,999.802,VALID,0,VALID,81.4386,VALID,0,VALID,23.2134,VALID,146,VALID,0.432422,
2011-08-18, 01:08:04,VALID,999.771,VALID,0,VALID,81.1257,VALID,0,VALID,23.2542,VALID,146,VALID,0.25,
2011-08-18, 01:09:04,VALID,999.719,VALID,0,VALID,80.9503,VALID,0,VALID,23.2737,VALID,146,VALID,0.236328,
2011-08-18, 01:10:04,VALID,999.767,VALID,0,VALID,82.5067,VALID,0,VALID,23.2932,VALID,146,VALID,0.367188,
2011-08-18, 01:11:04,VALID,999.73,VALID,0,VALID,83.0179,VALID,0,VALID,23.2347,VALID,146,VALID,0.442969,
2011-08-18, 01:12:04,VALID,999.719,VALID,0,VALID,83.5367,VALID,0,VALID,23.1354,VALID,146,VALID,0.407422,
2011-08-18, 01:13:04,VALID,999.722,VALID,0,VALID,84.3912,VALID,0,VALID,23.0981,VALID,146,VALID,0.123438,
2011-08-18, 01:14:04,VALID,999.693,VALID,0,VALID,84.6583,VALID,0,VALID,23.0183,VALID,146,VALID,0.25,
2011-08-18, 01:15:04,VALID,999.715,VALID,0,VALID,84.7422,VALID,0,VALID,22.9598,VALID,146,VALID,0.234766,
2011-08-18, 01:16:04,VALID,999.677,VALID,0,VALID,84.7422,VALID,0,VALID,22.9225,VALID,146,VALID,0.267578,
2011-08-18, 01:17:04,VALID,999.667,VALID,0,VALID,84.8337,VALID,0,VALID,22.8818,VALID,146,VALID,0.283984,
2011-08-18, 01:18:04,VALID,999.675,VALID,0,VALID,85.2763,VALID,0,VALID,22.8623,VALID,146,VALID,0.398047,
2011-08-18, 01:19:04,VALID,999.655,VALID,0,VALID,85.9095,VALID,0,VALID,22.864,VALID,146,VALID,0.384375,
2011-08-18, 01:20:04,VALID,999.683,VALID,0,VALID,85.9858,VALID,0,VALID,22.8037,VALID,146,VALID,0.478906,
2011-08-18, 01:21:04,VALID,999.663,VALID,0,VALID,86.2757,VALID,0,VALID,22.786,VALID,146,VALID,0.666797,
2011-08-18, 01:22:04,VALID,999.656,VALID,0,VALID,86.4589,VALID,0,VALID,22.7469,VALID,52,VALID,0.770312,
2011-08-18, 01:23:04,VALID,999.664,VALID,0,VALID,86.4589,VALID,0,VALID,22.7274,VALID,27,VALID,0.839453,
2011-08-18, 01:24:04,VALID,999.659,VALID,0,VALID,86.5275,VALID,0,VALID,22.7274,VALID,27,VALID,0.7,
2011-08-18, 01:25:04,VALID,999.677,VALID,0,VALID,86.8098,VALID,0,VALID,22.6867,VALID,27,VALID,0.396484,
2011-08-18, 01:26:04,VALID,999.707,VALID,0,VALID,87.1532,VALID,0,VALID,22.6884,VALID,27,VALID,0.299609,
2011-08-18, 01:27:04,VALID,999.714,VALID,0,VALID,87.5117,VALID,0,VALID,22.6672,VALID,27,VALID,0.232031,
2011-08-18, 01:28:04,VALID,999.702,VALID,0,VALID,87.8169,VALID,0,VALID,22.6477,VALID,27,VALID,0.332422,
2011-08-18, 01:29:04,VALID,999.712,VALID,0,VALID,88.1297,VALID,0,VALID,22.6087,VALID,27,VALID,0.489062,
2011-08-18, 01:30:04,VALID,999.701,VALID,0,VALID,88.3586,VALID,0,VALID,22.6104,VALID,27,VALID,0.521875,
2011-08-18, 01:31:04,VALID,999.702,VALID,0,VALID,88.4807,VALID,0,VALID,22.5306,VALID,27,VALID,0.485156,
2011-08-18, 01:32:04,VALID,999.658,VALID,0,VALID,88.5265,VALID,0,VALID,22.5111,VALID,27,VALID,0.577734,
2011-08-18, 01:33:04,VALID,999.677,VALID,0,VALID,88.5723,VALID,0,VALID,22.4916,VALID,27,VALID,0.642187,
2011-08-18, 01:34:04,VALID,999.67,VALID,0,VALID,88.6486,VALID,0,VALID,22.4526,VALID,27,VALID,0.665625,
2011-08-18, 01:35:04,VALID,999.621,VALID,0,VALID,88.7325,VALID,0,VALID,22.4331,VALID,27,VALID,0.68125,
2011-08-18, 01:36:04,VALID,999.617,VALID,0,VALID,88.5494,VALID,0,VALID,22.3958,VALID,27,VALID,0.825,
2011-08-18, 01:37:04,VALID,999.598,VALID,0,VALID,88.4731,VALID,0,VALID,22.3356,VALID,27,VALID,0.897266,
2011-08-18, 01:38:04,VALID,999.563,VALID,0,VALID,88.5646,VALID,0,VALID,22.3178,VALID,27,VALID,1.0832,
2011-08-18, 01:39:04,VALID,999.574,VALID,0,VALID,88.5875,VALID,0,VALID,22.2381,VALID,27,VALID,1.13437,
2011-08-18, 01:40:04,VALID,999.563,VALID,0,VALID,88.6562,VALID,0,VALID,22.2202,VALID,34,VALID,1.58008,
2011-08-18, 01:41:04,VALID,999.56,VALID,0,VALID,88.618,VALID,0,VALID,22.1812,VALID,34,VALID,1.09336,
2011-08-18, 01:42:04,VALID,999.547,VALID,0,VALID,88.496,VALID,0,VALID,22.1032,VALID,34,VALID,0.885547,
2011-08-18, 01:43:04,VALID,999.568,VALID,0,VALID,88.351,VALID,0,VALID,22.0447,VALID,46,VALID,1.30469,
2011-08-18, 01:44:04,VALID,999.573,VALID,0,VALID,88.5036,VALID,0,VALID,21.9667,VALID,43,VALID,1.0918,
2011-08-18, 01:45:04,VALID,999.552,VALID,0,VALID,88.8546,VALID,0,VALID,21.9065,VALID,43,VALID,1.025,
2011-08-18, 01:46:04,VALID,999.528,VALID,0,VALID,89.1292,VALID,0,VALID,21.8675,VALID,43,VALID,1.03125,
2011-08-18, 01:47:04,VALID,999.536,VALID,0,VALID,89.381,VALID,0,VALID,21.8692,VALID,43,VALID,1.09297,
2011-08-18, 01:48:04,VALID,999.514,VALID,0,VALID,89.7777,VALID,0,VALID,21.8285,VALID,31,VALID,1.34687,
2011-08-18, 01:49:04,VALID,999.544,VALID,0,VALID,90.0753,VALID,0,VALID,21.8285,VALID,30,VALID,1.09883,
2011-08-18, 01:50:04,VALID,999.547,VALID,0,VALID,90.2584,VALID,0,VALID,21.809,VALID,30,VALID,0.828906,
2011-08-18, 01:51:04,VALID,999.554,VALID,0,VALID,90.3423,VALID,0,VALID,21.77,VALID,30,VALID,0.386328,
2011-08-18, 01:52:04,VALID,999.557,VALID,0,VALID,90.3881,VALID,0,VALID,21.7505,VALID,30,VALID,0.484375,
2011-08-18, 01:53:04,VALID,999.529,VALID,0,VALID,90.4186,VALID,0,VALID,21.7521,VALID,30,VALID,0.402734,
2011-08-18, 01:54:04,VALID,999.524,VALID,0,VALID,90.3881,VALID,0,VALID,21.7115,VALID,30,VALID,0.467187,
2011-08-18, 01:55:04,VALID,999.53,VALID,0,VALID,90.3576,VALID,0,VALID,21.7326,VALID,30,VALID,0.291797,
2011-08-18, 01:56:04,VALID,999.47,VALID,0,VALID,90.3423,VALID,0,VALID,21.692,VALID,30,VALID,0.420312,
2011-08-18, 01:57:04,VALID,999.46,VALID,0,VALID,90.3194,VALID,0,VALID,21.692,VALID,30,VALID,0.40625,
2011-08-18, 01:58:04,VALID,999.445,VALID,0,VALID,90.3271,VALID,0,VALID,21.692,VALID,30,VALID,0.354688,
2011-08-18, 01:59:04,VALID,999.416,VALID,0,VALID,90.3194,VALID,0,VALID,21.692,VALID,30,VALID,0.309375,
2011-08-18, 02:00:04,VALID,999.422,VALID,0,VALID,90.3118,VALID,0,VALID,21.692,VALID,30,VALID,0.301562,
2011-08-18, 02:01:04,VALID,999.408,VALID,0,VALID,90.3042,VALID,0,VALID,21.7131,VALID,30,VALID,0.539063,
2011-08-18, 02:02:04,VALID,999.422,VALID,0,VALID,90.2813,VALID,0,VALID,21.692,VALID,30,VALID,0.740234,
2011-08-18, 02:03:04,VALID,999.421,VALID,0,VALID,90.1516,VALID,0,VALID,21.7131,VALID,31,VALID,1.01641,
2011-08-18, 02:04:04,VALID,999.404,VALID,0,VALID,89.8083,VALID,0,VALID,21.6725,VALID,37,VALID,0.925391,
2011-08-18, 02:05:04,VALID,999.406,VALID,0,VALID,89.381,VALID,0,VALID,21.6936,VALID,41,VALID,0.749609,
2011-08-18, 02:06:04,VALID,999.398,VALID,0,VALID,89.1292,VALID,0,VALID,21.7131,VALID,41,VALID,0.694531,
2011-08-18, 02:07:04,VALID,999.375,VALID,0,VALID,88.8393,VALID,0,VALID,21.7131,VALID,41,VALID,0.803906,
2011-08-18, 02:08:04,VALID,999.375,VALID,0,VALID,88.4502,VALID,0,VALID,21.692,VALID,41,VALID,0.759766,
2011-08-18, 02:09:04,VALID,999.324,VALID,0,VALID,88.3739,VALID,0,VALID,21.7115,VALID,41,VALID,0.788672,
2011-08-18, 02:10:04,VALID,999.313,VALID,0,VALID,88.557,VALID,0,VALID,21.7521,VALID,31,VALID,0.834375,
2011-08-18, 02:11:04,VALID,999.323,VALID,0,VALID,88.8469,VALID,0,VALID,21.7505,VALID,30,VALID,0.499219,
2011-08-18, 02:12:04,VALID,999.277,VALID,0,VALID,89.0758,VALID,0,VALID,21.7505,VALID,30,VALID,0.325781,
2011-08-18, 02:13:04,VALID,999.243,VALID,0,VALID,89.2894,VALID,0,VALID,21.7716,VALID,30,VALID,0.722266,
2011-08-18, 02:14:04,VALID,999.233,VALID,0,VALID,89.3047,VALID,0,VALID,21.7716,VALID,30,VALID,0.741016,
2011-08-18, 02:15:04,VALID,999.236,VALID,0,VALID,89.3276,VALID,0,VALID,21.7716,VALID,30,VALID,0.6,
2011-08-18, 02:16:04,VALID,999.263,VALID,0,VALID,89.3734,VALID,0.112286,VALID,21.77,VALID,30,VALID,0.448047,
2011-08-18, 02:17:04,VALID,999.292,VALID,0,VALID,89.3657,VALID,0,VALID,21.7488,VALID,30,VALID,0.506641,
2011-08-18, 02:18:04,VALID,999.28,VALID,0,VALID,89.2742,VALID,0.112286,VALID,21.7488,VALID,30,VALID,0.539844,
2011-08-18, 02:19:04,VALID,999.272,VALID,0,VALID,89.1292,VALID,0,VALID,21.77,VALID,30,VALID,0.579297,
2011-08-18, 02:20:04,VALID,999.271,VALID,0,VALID,89.0377,VALID,0.112286,VALID,21.7895,VALID,30,VALID,0.574219,
2011-08-18, 02:21:04,VALID,999.262,VALID,0,VALID,88.8469,VALID,0,VALID,21.77,VALID,30,VALID,0.650391,
2011-08-18, 02:22:04,VALID,999.241,VALID,0,VALID,88.6791,VALID,0,VALID,21.809,VALID,30,VALID,0.627734,
2011-08-18, 02:23:04,VALID,999.237,VALID,0,VALID,88.496,VALID,0,VALID,21.7878,VALID,30,VALID,0.552734,
2011-08-18, 02:24:04,VALID,999.22,VALID,0,VALID,88.1221,VALID,0,VALID,21.7878,VALID,30,VALID,0.582422,
2011-08-18, 02:25:04,VALID,999.203,VALID,0,VALID,87.4431,VALID,0,VALID,21.8285,VALID,30,VALID,0.623438,
2011-08-18, 02:26:04,VALID,999.212,VALID,0,VALID,87.3973,VALID,0,VALID,21.8658,VALID,30,VALID,0.403516,
2011-08-18, 02:27:04,VALID,999.193,VALID,0,VALID,87.4278,VALID,0.112286,VALID,21.926,VALID,30,VALID,0.582422,
2011-08-18, 02:28:04,VALID,999.178,VALID,0,VALID,87.4278,VALID,0.112286,VALID,21.9243,VALID,30,VALID,0.660937,
2011-08-18, 02:29:04,VALID,999.181,VALID,0,VALID,87.5804,VALID,0,VALID,21.9243,VALID,30,VALID,0.774609,
2011-08-18, 02:30:04,VALID,999.167,VALID,0,VALID,87.4889,VALID,0.112286,VALID,21.9455,VALID,30,VALID,0.595312,
2011-08-18, 02:31:04,VALID,999.176,VALID,0,VALID,87.5804,VALID,0,VALID,21.9472,VALID,30,VALID,0.909766,
2011-08-18, 02:32:04,VALID,999.144,VALID,0,VALID,87.6872,VALID,0,VALID,21.965,VALID,48,VALID,0.58125,
2011-08-18, 02:33:04,VALID,999.154,VALID,0,VALID,87.7177,VALID,0,VALID,22.004,VALID,64,VALID,0.350781,
2011-08-18, 02:34:04,VALID,999.175,VALID,0,VALID,87.4965,VALID,0,VALID,22.0837,VALID,90,VALID,0.279687,
2011-08-18, 02:35:04,VALID,999.203,VALID,0,VALID,87.1837,VALID,0,VALID,22.1227,VALID,90,VALID,0.0773437,
2011-08-18, 02:36:04,VALID,999.187,VALID,0,VALID,86.9929,VALID,0,VALID,22.1405,VALID,90,VALID,0.308203,
2011-08-18, 02:37:04,VALID,999.15,VALID,0,VALID,86.6877,VALID,0,VALID,22.2381,VALID,112,VALID,0.748828,
2011-08-18, 02:38:04,VALID,999.18,VALID,0,VALID,86.2681,VALID,0,VALID,22.3763,VALID,118,VALID,0.628906,
2011-08-18, 02:39:04,VALID,999.203,VALID,0,VALID,85.3068,VALID,0,VALID,22.5128,VALID,141,VALID,1.075,
2011-08-18, 02:40:04,VALID,999.194,VALID,0,VALID,84.3607,VALID,0,VALID,22.6672,VALID,122,VALID,1,
2011-08-18, 02:41:04,VALID,999.177,VALID,0,VALID,83.6969,VALID,0,VALID,22.7842,VALID,127,VALID,0.673437,
2011-08-18, 02:42:04,VALID,999.215,VALID,0,VALID,82.995,VALID,0,VALID,22.9013,VALID,138,VALID,1.29531,
2011-08-18, 02:43:04,VALID,999.186,VALID,0,VALID,82.5296,VALID,0,VALID,22.9988,VALID,143,VALID,1.10156,
2011-08-18, 02:44:04,VALID,999.21,VALID,0,VALID,82.0184,VALID,0,VALID,23.1159,VALID,143,VALID,0.943359,
2011-08-18, 02:45:04,VALID,999.205,VALID,0,VALID,81.7132,VALID,0,VALID,23.1957,VALID,143,VALID,0.958594,
2011-08-18, 02:46:04,VALID,999.226,VALID,0,VALID,81.4538,VALID,0,VALID,23.1939,VALID,138,VALID,1.28008,
2011-08-18, 02:47:04,VALID,999.218,VALID,0,VALID,80.5764,VALID,0,VALID,23.2719,VALID,139,VALID,1.42344,
2011-08-18, 02:48:04,VALID,999.237,VALID,0,VALID,80.3323,VALID,0,VALID,23.3908,VALID,133,VALID,1.44219,
2011-08-18, 02:49:04,VALID,999.25,VALID,0,VALID,80.1263,VALID,0,VALID,23.428,VALID,128,VALID,1.13047,
2011-08-18, 02:50:04,VALID,999.24,VALID,0,VALID,80.0195,VALID,0,VALID,23.4688,VALID,142,VALID,0.986328,
2011-08-18, 02:51:04,VALID,999.228,VALID,0,VALID,80.2865,VALID,0,VALID,23.4475,VALID,128,VALID,0.512891,
2011-08-18, 02:52:04,VALID,999.211,VALID,0,VALID,80.4391,VALID,0,VALID,23.4298,VALID,128,VALID,0.4125,
2011-08-18, 02:53:04,VALID,999.22,VALID,0,VALID,80.5917,VALID,0,VALID,23.4103,VALID,128,VALID,0.214844,
2011-08-18, 02:54:04,VALID,999.224,VALID,0,VALID,80.8816,VALID,0,VALID,23.3713,VALID,128,VALID,0.300781,
2011-08-18, 02:55:04,VALID,999.237,VALID,0,VALID,81.2097,VALID,0,VALID,23.3518,VALID,128,VALID,0.478516,
2011-08-18, 02:56:04,VALID,999.23,VALID,0,VALID,81.4615,VALID,0,VALID,23.3127,VALID,128,VALID,0.587109,
2011-08-18, 02:57:04,VALID,999.242,VALID,0,VALID,81.5912,VALID,0,VALID,23.2932,VALID,101,VALID,0.769531,
2011-08-18, 02:58:04,VALID,999.251,VALID,0,VALID,81.5606,VALID,0,VALID,23.2542,VALID,65,VALID,1.01328,
2011-08-18, 02:59:04,VALID,999.296,VALID,0,VALID,81.5912,VALID,0,VALID,23.2347,VALID,72,VALID,0.627734,
2011-08-18, 03:00:04,VALID,999.303,VALID,0,VALID,81.7056,VALID,0,VALID,23.2347,VALID,81,VALID,0.427344,
2011-08-18, 03:01:04,VALID,999.331,VALID,0,VALID,82.026,VALID,0,VALID,23.1744,VALID,134,VALID,0.549219,
2011-08-18, 03:02:04,VALID,999.342,VALID,0,VALID,81.7514,VALID,0,VALID,23.1354,VALID,133,VALID,0.780078,
2011-08-18, 03:03:04,VALID,999.335,VALID,0,VALID,81.5225,VALID,0,VALID,23.1762,VALID,110,VALID,0.766797,
2011-08-18, 03:04:04,VALID,999.302,VALID,0,VALID,80.3018,VALID,0,VALID,23.2152,VALID,123,VALID,1.79336,
2011-08-18, 03:05:04,VALID,999.323,VALID,0,VALID,80.0423,VALID,0,VALID,23.2932,VALID,136,VALID,1.19375,
2011-08-18, 03:06:04,VALID,999.279,VALID,0,VALID,79.3099,VALID,0,VALID,23.3713,VALID,135,VALID,1.40469,
2011-08-18, 03:07:04,VALID,999.304,VALID,0,VALID,78.9513,VALID,0,VALID,23.4688,VALID,139,VALID,1.25898,
2011-08-18, 03:08:04,VALID,999.27,VALID,0,VALID,78.73,VALID,0,VALID,23.5274,VALID,120,VALID,1.41641,
2011-08-18, 03:09:04,VALID,999.279,VALID,0,VALID,78.9132,VALID,0,VALID,23.5469,VALID,115,VALID,1.21914,
2011-08-18, 03:10:04,VALID,999.283,VALID,0,VALID,79.081,VALID,0,VALID,23.5274,VALID,128,VALID,1.02422,
2011-08-18, 03:11:04,VALID,999.32,VALID,0,VALID,79.3709,VALID,0,VALID,23.4884,VALID,128,VALID,0.730078,
2011-08-18, 03:12:04,VALID,999.281,VALID,0,VALID,79.1802,VALID,0,VALID,23.4493,VALID,136,VALID,0.832422,
2011-08-18, 03:13:04,VALID,999.311,VALID,0,VALID,78.9208,VALID,0,VALID,23.4493,VALID,143,VALID,0.996094,
2011-08-18, 03:14:04,VALID,999.294,VALID,0,VALID,78.463,VALID,0,VALID,23.4688,VALID,141,VALID,1.21172,
2011-08-18, 03:15:04,VALID,999.324,VALID,0,VALID,78.5164,VALID,0,VALID,23.5079,VALID,144,VALID,0.999609,
2011-08-18, 03:16:04,VALID,999.307,VALID,0,VALID,78.4935,VALID,0,VALID,23.5061,VALID,128,VALID,0.736328,
2011-08-18, 03:17:04,VALID,999.313,VALID,0,VALID,77.7382,VALID,0,VALID,23.5079,VALID,132,VALID,1.12734,
2011-08-18, 03:18:04,VALID,999.323,VALID,0,VALID,78.0052,VALID,0,VALID,23.5664,VALID,151,VALID,1.06875,
2011-08-18, 03:19:04,VALID,999.314,VALID,0,VALID,77.1049,VALID,0,VALID,23.5859,VALID,131,VALID,1.60469,
2011-08-18, 03:20:04,VALID,999.319,VALID,0,VALID,76.9981,VALID,0,VALID,23.625,VALID,142,VALID,1.55898,
2011-08-18, 03:21:04,VALID,999.302,VALID,0,VALID,76.7769,VALID,0,VALID,23.6835,VALID,141,VALID,1.35117,
2011-08-18, 03:22:04,VALID,999.312,VALID,0,VALID,76.9523,VALID,0,VALID,23.703,VALID,138,VALID,1.39102,
2011-08-18, 03:23:04,VALID,999.299,VALID,0,VALID,76.8455,VALID,0,VALID,23.6817,VALID,136,VALID,1.44375,
2011-08-18, 03:24:04,VALID,999.238,VALID,0,VALID,76.5785,VALID,0,VALID,23.7225,VALID,131,VALID,1.32148,
2011-08-18, 03:25:04,VALID,999.219,VALID,0,VALID,76.3038,VALID,0,VALID,23.742,VALID,116,VALID,1.29258,
2011-08-18, 03:26:04,VALID,999.251,VALID,0,VALID,76.7311,VALID,0,VALID,23.7225,VALID,122,VALID,0.790625,
2011-08-18, 03:27:04,VALID,999.277,VALID,0,VALID,75.9758,VALID,0,VALID,23.6835,VALID,128,VALID,2.02578,
2011-08-18, 03:28:04,VALID,999.236,VALID,0,VALID,76.0749,VALID,0,VALID,23.7225,VALID,140,VALID,1.52461,
2011-08-18, 03:29:04,VALID,999.255,VALID,0,VALID,76.2504,VALID,0,VALID,23.7225,VALID,134,VALID,1.74258,
2011-08-18, 03:30:04,VALID,999.252,VALID,0,VALID,76.2046,VALID,0,VALID,23.742,VALID,128,VALID,1.42539,
2011-08-18, 03:31:04,VALID,999.281,VALID,0,VALID,76.5785,VALID,0,VALID,23.703,VALID,133,VALID,1.46094,
2011-08-18, 03:32:04,VALID,999.28,VALID,0,VALID,76.6853,VALID,0,VALID,23.6835,VALID,131,VALID,1.30117,
2011-08-18, 03:33:04,VALID,999.276,VALID,0,VALID,76.8379,VALID,0,VALID,23.6622,VALID,136,VALID,1.3043,
2011-08-18, 03:34:04,VALID,999.247,VALID,0,VALID,76.4946,VALID,0,VALID,23.6232,VALID,144,VALID,1.36055,
2011-08-18, 03:35:04,VALID,999.228,VALID,0,VALID,76.5175,VALID,0,VALID,23.6445,VALID,143,VALID,1.20781,
2011-08-18, 03:36:04,VALID,999.252,VALID,0,VALID,76.3801,VALID,0,VALID,23.664,VALID,149,VALID,1.32734,
2011-08-18, 03:37:04,VALID,999.202,VALID,0,VALID,76.7158,VALID,0,VALID,23.664,VALID,140,VALID,0.996484,
2011-08-18, 03:38:04,VALID,999.239,VALID,0,VALID,77.0439,VALID,0,VALID,23.6232,VALID,149,VALID,1.58281,
2011-08-18, 03:39:04,VALID,999.222,VALID,0,VALID,76.6014,VALID,0,VALID,23.6232,VALID,160,VALID,2.15039,
2011-08-18, 03:40:04,VALID,999.228,VALID,0,VALID,76.4564,VALID,0,VALID,23.6622,VALID,149,VALID,1.66914,
2011-08-18, 03:41:04,VALID,999.269,VALID,0,VALID,76.4488,VALID,0,VALID,23.6817,VALID,142,VALID,1.85664,
2011-08-18, 03:42:04,VALID,999.299,VALID,0,VALID,76.609,VALID,0,VALID,23.6817,VALID,150,VALID,1.85078,
2011-08-18, 03:43:04,VALID,999.282,VALID,0,VALID,76.0673,VALID,0,VALID,23.6817,VALID,148,VALID,2.01758,
2011-08-18, 03:44:04,VALID,999.306,VALID,0,VALID,76.2352,VALID,0,VALID,23.7012,VALID,155,VALID,1.83047,
2011-08-18, 03:45:04,VALID,999.331,VALID,0,VALID,76.1055,VALID,0,VALID,23.7402,VALID,140,VALID,1.87344,
2011-08-18, 03:46:04,VALID,999.359,VALID,0,VALID,75.8232,VALID,0,VALID,23.7402,VALID,145,VALID,2.32383,